This is the latest recevied weather packets stored in our database for station/object KO4ZGL-13. If no packets are shown the sender has not sent any weather packets the latest 10 day(s).
| Time | Temp. | Humidity | Pressure | Rain* | Wind** | Luminosity | Snow |
|---|---|---|---|---|---|---|---|
| 1788655750 | 26.67° C | 80% | 1010.8 hPa | 0 mm | - | 0 W/m² | - |
| 1788655445 | 26.67° C | 78% | 1010.7 hPa | 0 mm | - | 0 W/m² | - |
| 1788655140 | 26.67° C | 77% | 1011.4 hPa | 0 mm | - | 0 W/m² | - |
| 1788654835 | 26.67° C | 77% | 1011.3 hPa | 0 mm | - | 0 W/m² | - |
| 1788654555 | 26.67° C | 75% | 1011.5 hPa | 0 mm | - | 0 W/m² | - |
| 1788654230 | 27.22° C | 75% | 1011.5 hPa | 0 mm | - | 0 W/m² | - |
| 1788653926 | 27.22° C | 75% | 1011.5 hPa | 0 mm | - | 0 W/m² | - |
| 1788653621 | 27.22° C | 77% | 1011.5 hPa | 0 mm | - | 0 W/m² | - |
| 1788653316 | 27.22° C | 77% | 1011.6 hPa | 0 mm | - | 0 W/m² | - |
| 1788653011 | 27.22° C | 78% | 1011.7 hPa | 0 mm | - | 0 W/m² | - |
| 1788652706 | 27.78° C | 79% | 1011.8 hPa | 0 mm | - | 0 W/m² | - |
| 1788652406 | 27.78° C | 78% | 1011.6 hPa | 0 mm | - | 0 W/m² | - |
| 1788652101 | 27.78° C | 77% | 1011.7 hPa | 0 mm | - | 0 W/m² | - |
| 1788651796 | 28.33° C | 78% | 1012.2 hPa | 0 mm | - | 0 W/m² | - |
| 1788651491 | 28.33° C | 79% | 1012.1 hPa | 0 mm | - | 0 W/m² | - |
| 1788651186 | 28.89° C | 79% | 1011.6 hPa | 0 mm | - | 0 W/m² | - |
| 1788650885 | 28.89° C | 80% | 1011.8 hPa | 0 mm | - | 1 W/m² | - |
| 1788650582 | 28.89° C | 82% | 1011.9 hPa | 0 mm | - | 1 W/m² | - |
| 1788650277 | 30° C | 87% | 1011.9 hPa | 0 mm | - | 1 W/m² | - |
| 1788649971 | 30° C | 86% | 1011.7 hPa | 0 mm | - | 4 W/m² | - |
| 1788649663 | 30.56° C | 84% | 1011.4 hPa | 0 mm | - | 10 W/m² | - |
| 1788649360 | 30.56° C | 83% | 1011.4 hPa | 0 mm | - | 14 W/m² | - |
| 1788649077 | 30.56° C | 82% | 1011.2 hPa | 0 mm | - | 19 W/m² | - |
| 1788648755 | 31.11° C | 82% | 1011.1 hPa | 0 mm | - | 23 W/m² | - |
| 1788648454 | 31.11° C | 80% | 1011 hPa | 0 mm | - | 29 W/m² | - |
* Rain latest hour (hover to see other rain measurements)
** Current wind speed in m/s (hover to see current wind gust speed)